sat.trackr.live / text

‹ back to catalog

LAPAN-TUBSAT

NORAD 29709 · 2007-001A

PAYLOAD ACTIVE UNKNOWN

§ Identity

Operator
Country
INDO
Launch date
2007-01-10
Launch site
SRILR
Launch vehicle
Mass (kg)
RCS (m²)
0.36

Purposes: earth_obs

External: N2YO · Heavens-Above · Gunter

§ Orbital elements

Epoch: 2026-09-19T22:17:29.556384Z

Period
96.90 min
Inclination
98.1413°
Eccentricity
0.0010812
Mean motion
14.86030068 rev/d
Perigee alt
602.8 km
Apogee alt
617.9 km
Semi-major
6,988.5 km
B*
1.8050e-5
RAAN
264.3242°
Arg perigee
234.4664°
Mean anomaly
125.5543°
Rev number
6,522

§ Raw data

LAPAN-TUBSAT1 29709U 07001A   26262.92881431  .00000100  00000+0  18050-4 0  99972 29709  98.1413 264.3242 0010812 234.4664 125.5543 14.86030068 65225

JSON: /api/v1/satellites/29709 · /tle

For live sub-satellite position, see the globe view (requires WebGL).

§ Visibility from observer

Set your observer location to see the next 7 days of passes ≥ 10°. The values pass through the URL so the page stays shareable.

No JS? Fill the form by hand. The geolocation button needs JavaScript.

§ Radio — SatNOGS DB

ModeDescriptionDownlinkUplink
FM Mode U1 436.075 MHz
FM Mode U2 437.325 MHz

2 transmitters · refreshed weekly from db.satnogs.org